Dewpoint
21 18 16 15 16 20 26 22 18 15 14 14 13 13 10 7 8 8 8 8 6 4 3 4 6 6 6 7 9 11 18 18 33 47 51 55 57 57 58 58 58 58 59 60 61 61 61 61 61 61 61 61 61 63 64 65 65 65 65 65 65 66 65 64 64 63 62 62 61 61 61 61 61 61 61 62 63 65 65 65 65 65 65 65 65 65
23 18 17 19 21 23 24 28 30 27 26 15 14 15 14 13 12 13 15 18 17 21 13 7 4 5 7 9 11 12 16 14 35 48 52 55 56 56 56 56 57 58 59 60 60 60 61 60 60 60 61 62 61 63 64 64 65 65 65 65 66 65 65 64 64 63 63 62 62 61 61 60 61 61 61 61 62 63 64 65 65 65 65 65 64 64
19 16 19 21 22 27 28 29 30 27 24 24 21 18 17 16 16 18 19 23 23 25 15 11 3 4 7 9 10 13 20 33 33 50 53 55 55 55 55 55 57 57 58 59 59 60 60 60 60 60 61 61 62 63 64 64 65 65 65 66 65 65 65 64 64 64 63 62 62 61 61 61 60 61 61 62 62 64 64 63 63 64 64 64 64 64
18 16 18 17 25 27 27 29 30 32 33 26 23 22 18 20 18 16 22 19 20 24 20 11 5 9 16 24 19 30 42 48 47 52 54 55 55 55 55 55 56 57 57 57 57 58 59 59 60 60 60 61 62 63 64 64 64 65 65 65 65 64 64 64 63 63 63 63 62 61 61 61 60 60 61 60 61 62 62 62 62 62 62 63 63 63
13 14 19 24 25 25 24 26 28 27 23 29 27 21 19 22 19 17 20 23 25 20 31 16 22 20 29 9 15 42 50 50 51 53 54 55 55 55 56 56 57 57 57 57 57 58 59 59 60 60 60 61 62 63 63 64 64 65 65 64 64 63 63 63 64 63 63 63 60 59 59 59 59 59 59 59 59 59 60 60 60 60 61 62 62 61
13 15 25 19 19 22 25 22 25 28 23 24 30 26 26 26 25 21 24 18 16 17 29 18 14 13 26 27 24 37 49 50 51 52 53 53 54 54 54 55 56 56 57 57 57 58 59 59 60 60 60 61 62 62 63 64 64 64 64 63 62 63 63 63 64 64 63 61 59 58 58 57 57 57 57 58 58 57 58 59 58 59 59 59 59 59
13 19 22 18 22 20 18 18 19 28 23 23 25 33 28 24 26 26 19 18 14 9 21 29 14 14 24 18 29 44 48 49 50 51 52 52 53 53 53 54 55 55 56 58 58 58 58 59 59 60 60 61 61 62 63 64 64 64 64 62 62 62 63 64 64 63 61 61 59 58 57 57 56 56 55 56 56 56 56 57 57 57 58 59 58 58
11 12 18 21 25 21 20 17 21 25 23 20 30 26 20 20 22 22 19 20 15 30 32 31 24 16 15 21 39 47 48 49 50 50 51 51 52 52 53 53 54 55 56 57 58 58 59 59 59 59 60 61 61 62 62 63 63 63 62 62 62 62 63 63 63 62 61 59 57 56 56 56 56 56 55 55 55 56 57 56 56 57 57 57 57 58
25 19 21 20 23 20 17 17 24 27 22 24 32 25 20 17 23 18 15 16 25 21 13 24 27 18 18 22 41 46 46 47 48 49 50 51 51 52 53 53 54 55 56 57 58 58 59 59 59 60 60 61 61 61 62 62 62 62 61 61 61 61 62 62 63 60 58 57 56 56 55 55 56 55 55 57 57 56 56 55 55 56 56 56 55 54
23 16 13 16 17 19 19 17 19 26 20 24 21 23 22 22 20 18 16 13 22 14 14 21 28 17 19 27 28 29 45 45 47 49 49 51 51 52 52 53 54 55 56 57 58 59 59 59 59 60 60 61 61 61 61 62 62 61 61 61 61 61 61 61 61 60 59 58 57 55 55 56 56 56 56 56 55 55 54 54 54 54 54 54 53 53
16 25 28 16 17 17 21 21 20 22 20 28 20 15 12 14 16 21 20 17 21 11 17 26 30 18 15 25 31 30 38 45 48 48 49 51 51 52 53 53 54 55 56 57 58 59 59 59 59 60 60 60 60 60 61 61 61 61 60 60 60 60 60 61 60 60 59 58 56 55 56 56 55 55 55 54 54 54 53 53 52 52 53 53 53 54
16 14 13 18 21 19 19 18 21 19 18 18 20 16 15 16 24 17 22 18 12 11 20 25 25 22 14 24 36 38 36 47 48 48 50 50 51 52 53 54 55 56 57 58 58 58 59 59 59 60 60 60 60 60 61 61 60 60 60 59 59 59 60 60 60 59 59 59 57 57 57 56 55 55 54 54 54 53 52 52 52 52 52 52 53 53
21 16 15 15 31 14 17 14 15 12 16 13 15 19 12 18 16 14 16 9 8 11 17 24 23 21 28 29 38 42 43 49 49 49 50 51 52 53 53 55 56 56 57 57 58 58 58 59 59 59 59 60 60 60 61 61 61 60 60 60 59 60 59 59 59 59 58 58 58 57 55 55 55 54 54 54 53 53 52 52 51 51 52 51 51 51
17 23 16 14 15 20 14 14 14 10 15 11 11 20 15 12 12 9 16 14 15 17 25 24 28 24 29 37 41 44 45 49 50 51 52 51 52 53 55 56 56 57 57 58 58 58 58 59 59 59 59 60 60 60 61 61 61 61 60 60 60 60 60 59 59 59 58 58 57 56 55 55 55 54 55 54 53 53 53 52 51 51 51 50 51 52
10 10 17 16 17 19 13 12 12 20 22 13 15 16 18 19 17 10 14 10 10 16 22 28 20 19 29 36 43 45 47 50 50 50 51 53 54 55 56 57 57 57 58 58 58 58 58 59 59 59 59 59 60 60 60 61 61 62 61 61 61 60 60 59 58 58 58 58 58 56 55 55 55 55 55 53 54 54 51 51 52 51 50 50 52 53
11 15 21 17 13 16 13 14 14 13 15 23 22 17 18 18 25 14 24 20 19 17 17 23 22 29 34 41 45 46 48 49 51 51 52 53 55 55 55 56 56 57 58 58 58 58 58 58 60 59 59 59 59 60 60 61 62 62 62 61 61 61 60 59 58 57 57 58 58 57 55 55 55 56 54 54 55 52 51 51 51 51 51 52 52 52
15 17 23 20 15 14 13 14 15 12 14 24 13 16 18 24 23 23 21 28 22 24 16 22 32 37 39 40 42 45 46 47 49 50 52 53 54 54 54 55 56 57 58 58 58 58 58 59 60 60 59 59 59 60 60 61 61 62 62 61 60 60 59 59 58 57 57 58 58 56 55 55 55 54 54 54 53 51 52 52 52 51 52 52 51 52
14 18 29 15 15 14 14 15 14 12 20 25 17 22 28 28 29 25 17 21 20 18 20 26 29 33 30 31 41 44 45 46 47 48 51 52 53 53 53 53 54 56 56 55 55 56 58 59 59 59 59 60 60 60 60 60 61 62 62 61 60 60 60 58 58 57 57 58 57 56 55 55 55 54 54 55 53 52 52 52 52 52 51 51 52 52
17 12 17 19 16 25 23 16 20 19 21 14 22 22 24 25 14 25 22 13 12 12 15 23 29 30 31 32 39 41 43 44 45 46 49 50 52 52 52 51 52 53 54 54 55 56 57 57 58 58 58 59 59 59 58 59 61 61 61 61 60 60 60 59 58 57 57 57 57 56 55 55 55 55 55 54 53 53 52 52 52 50 51 52 52 52
29 16 20 25 21 23 28 21 21 24 23 22 15 26 28 28 28 16 20 25 19 17 14 16 26 22 35 35 40 41 42 44 44 45 46 48 50 50 51 51 52 51 52 53 54 56 56 57 57 57 58 58 58 58 58 58 58 59 60 60 60 60 59 59 59 58 57 58 58 57 57 56 56 55 55 54 54 52 52 52 51 51 52 51 52 51
23 23 18 26 26 20 26 29 24 23 24 25 25 26 26 28 37 26 28 21 19 19 17 19 18 26 34 42 44 44 44 46 46 46 47 47 49 50 50 50 51 52 52 53 54 55 55 56 57 57 57 57 57 58 57 57 57 57 58 58 58 58 58 58 58 58 58 58 58 57 57 57 56 55 54 54 53 53 52 52 52 51 52 52 52 53
26 24 20 25 21 23 27 35 26 28 28 30 28 27 25 22 19 15 18 28 25 23 18 18 16 28 37 46 45 45 46 48 48 48 48 48 49 50 51 51 52 52 52 53 54 55 55 56 57 57 58 58 57 56 56 56 57 57 57 57 57 57 57 57 57 57 58 58 58 57 58 58 57 55 54 54 53 53 52 52 52 52 52 51 54 53
32 30 25 21 23 24 27 25 29 30 31 31 31 31 31 29 27 23 15 20 24 26 29 26 27 28 41 46 47 47 48 48 49 49 49 49 50 50 50 51 52 53 53 54 55 55 55 56 55 56 57 57 56 55 56 57 56 56 57 57 57 57 57 57 58 58 58 58 57 57 58 58 58 58 56 55 54 53 52 52 53 53 52 53 54 54
52 26 25 25 26 29 27 29 30 30 30 30 32 34 33 31 31 26 27 27 23 24 23 24 28 33 43 47 46 48 48 48 49 50 49 49 49 49 49 50 51 52 53 54 54 54 55 55 55 55 56 56 56 56 56 57 56 56 56 57 58 58 58 58 58 58 58 57 56 57 57 58 59 59 58 57 56 53 53 53 53 53 53 53 54 53
30 32 28 23 20 23 24 26 26 29 31 31 30 32 34 34 35 35 32 29 25 25 27 23 20 30 42 47 47 47 48 48 49 50 50 48 49 49 50 50 51 52 52 53 53 54 55 55 55 54 54 55 56 56 56 56 57 56 56 56 57 57 57 58 58 58 58 57 56 56 56 56 57 58 58 57 57 56 54 53 53 53 53 53 53 53
32 33 31 24 18 15 13 15 19 21 29 32 35 33 33 35 34 29 20 24 22 24 27 27 30 36 44 46 46 46 47 47 48 49 50 50 49 49 49 50 50 50 50 51 52 53 54 54 55 55 54 54 55 56 56 56 56 56 56 56 56 56 56 56 58 58 57 56 56 56 55 55 56 57 57 57 57 57 57 56 54 54 53 52 52 53
32 36 34 31 27 24 25 28 29 33 34 30 33 34 34 36 37 32 29 26 25 25 27 32 35 38 42 44 44 45 46 46 47 48 48 48 49 49 49 49 49 49 50 50 51 52 52 53 53 54 55 54 54 55 56 56 56 56 56 56 57 57 56 56 56 56 56 55 55 55 55 56 56 55 56 57 57 57 56 56 56 55 54 53 53 53
35 29 36 35 34 33 33 31 30 32 32 33 33 35 37 37 37 35 30 26 30 29 26 34 39 39 41 43 44 45 46 46 47 48 48 48 46 45 44 44 45 45 45 46 48 49 51 52 53 54 54 54 55 55 56 56 56 56 56 56 56 56 56 55 55 55 55 55 55 55 56 56 56 56 57 56 56 55 56 56 56 56 56 55 54 53
32 28 34 36 37 37 36 37 33 32 32 33 34 35 36 38 37 34 34 36 32 25 29 36 39 39 41 43 44 44 44 44 44 43 43 42 42 41 41 41 42 42 42 42 43 43 44 45 48 50 53 54 55 54 55 56 56 55 55 55 55 55 55 55 55 55 55 55 55 55 56 56 55 55 56 55 55 55 56 56 56 57 57 56 54 53
32 31 37 38 37 36 38 38 39 34 33 33 33 34 36 36 37 37 37 38 37 35 37 40 40 40 42 42 43 43 43 42 41 41 41 40 40 39 39 39 40 40 41 41 41 41 41 41 42 43 44 45 48 52 55 55 54 55 55 54 54 54 54 55 54 55 55 55 55 55 55 55 55 55 55 55 55 54 54 55 55 55 56 57 55 53
32 30 37 35 33 34 37 38 38 36 34 33 33 33 33 33 33 35 37 38 40 40 40 40 39 38 43 43 43 43 43 43 41 40 40 40 40 38 38 38 38 39 39 40 40 40 41 41 41 41 41 42 45 45 48 52 54 55 55 54 54 54 54 54 54 54 54 54 55 55 55 55 55 54 54 55 54 54 54 54 54 53 54 55 55 55
36 30 36 34 30 30 38 35 35 35 33 32 32 32 33 32 27 29 29 33 36 37 38 37 35 35 41 42 41 41 41 40 40 40 40 41 40 39 38 39 38 38 38 39 40 40 40 40 41 41 41 41 42 42 42 43 47 53 54 54 55 54 54 54 53 53 53 54 54 55 55 54 54 54 54 54 54 54 54 53 53 53 53 55 55 55
37 32 30 29 29 28 35 36 34 32 29 29 31 32 33 33 32 33 33 34 36 38 36 34 34 40 41 42 40 40 40 40 40 41 40 41 41 40 40 40 39 39 39 40 40 41 40 40 41 41 41 41 42 42 42 42 45 49 53 54 55 55 53 53 52 52 53 53 53 53 53 53 53 53 52 52 52 53 53 53 53 53 53 55 55 55
36 34 32 35 29 28 33 32 33 29 23 26 34 35 35 33 32 31 32 35 37 37 36 39 39 40 41 41 39 40 40 40 40 40 43 41 40 40 41 41 42 42 41 41 41 41 41 41 43 41 42 42 42 43 42 42 42 42 46 50 53 54 54 53 53 52 52 52 52 53 53 53 53 52 52 52 52 52 52 52 52 52 52 53 54 55
31 31 32 34 30 30 30 28 25 21 26 36 37 33 34 37 38 37 37 37 37 37 38 37 38 39 39 40 40 40 40 41 41 39 39 40 39 39 40 41 41 42 42 43 43 42 41 41 40 40 39 41 43 43 43 41 41 41 40 40 40 41 44 49 52 52 52 51 51 52 52 53 52 52 52 52 52 52 52 51 51 52 51 53 54 54
29 30 28 29 29 30 28 26 18 18 32 36 36 33 34 33 33 36 35 37 37 36 36 36 37 37 38 38 39 40 38 34 33 34 34 35 36 38 37 40 40 42 42 43 43 43 43 42 41 40 41 40 39 41 43 43 42 40 39 39 39 39 39 40 39 41 47 50 50 51 51 52 51 50 50 51 51 51 51 51 51 51 50 51 51 51
33 32 31 28 28 26 24 24 26 31 30 31 31 30 32 28 30 32 32 35 38 37 35 34 33 33 33 33 33 33 33 33 33 34 35 35 36 36 37 38 39 40 40 42 42 42 43 42 42 41 41 41 40 40 41 43 42 40 38 36 36 35 36 38 38 39 40 44 50 51 51 51 50 50 49 50 50 51 51 50 50 50 50 51 51 51
32 29 28 29 26 29 27 24 25 24 22 27 32 33 36 36 36 37 34 33 38 40 36 33 32 32 32 32 32 33 33 32 31 32 34 35 35 36 36 37 38 39 40 40 41 42 41 41 41 42 40 38 39 40 42 40 39 38 37 37 36 35 35 35 37 38 39 39 41 44 48 50 50 50 50 50 50 49 49 49 50 49 50 50 48 50
29 31 31 29 28 28 25 23 23 21 25 29 31 34 37 37 37 36 33 30 36 34 37 32 31 32 31 31 32 33 30 29 28 28 29 28 27 29 28 28 29 30 31 32 31 31 32 34 36 40 39 35 34 35 37 37 36 36 36 36 36 36 35 36 37 37 38 39 39 40 42 45 47 48 48 48 48 49 49 49 51 50 51 51 51 52
27 28 29 28 25 26 25 22 21 27 26 29 31 32 37 38 39 33 25 25 34 35 34 32 31 31 31 32 31 29 27 26 26 28 29 29 28 28 29 29 30 30 30 31 32 32 32 33 32 32 32 33 33 34 35 37 38 38 36 35 34 34 35 35 36 36 37 37 38 38 38 38 38 42 46 47 47 47 48 49 48 49 51 50 51 51
25 26 28 22 26 25 25 26 27 27 30 32 31 33 37 38 37 27 22 29 36 36 32 32 32 32 31 29 29 28 29 28 29 29 30 30 31 31 32 31 31 31 31 32 33 35 32 32 32 31 32 33 33 34 35 36 36 38 37 36 34 34 35 35 35 36 37 37 37 37 36 36 37 38 38 40 42 44 45 45 46 46 47 47 45 45
26 25 28 27 26 24 23 23 24 26 29 32 33 35 37 33 26 24 32 40 39 31 30 30 29 29 29 29 29 29 30 31 32 31 31 31 32 32 32 32 31 31 31 34 35 34 32 32 31 31 32 32 33 34 35 35 35 35 35 36 35 35 35 35 35 35 36 36 36 37 36 36 36 38 40 38 38 37 37 41 44 45 45 46 46 44
25 28 26 25 26 26 24 22 21 19 26 32 33 31 33 27 28 35 37 38 37 33 30 30 30 30 29 29 29 29 28 28 28 28 29 30 31 31 32 31 30 29 29 30 30 32 32 30 30 31 31 33 33 34 34 33 34 34 34 34 36 37 37 35 35 35 35 35 36 36 37 37 37 38 39 37 37 38 35 38 40 43 44 44 44 44
28 29 26 26 26 20 21 22 22 30 29 32 31 28 31 33 35 36 35 35 37 36 34 31 30 29 28 27 27 28 28 28 28 27 27 28 29 29 30 31 31 30 30 30 31 31 32 31 31 31 31 33 33 33 34 33 33 33 32 32 35 34 35 34 35 34 34 34 35 36 37 37 37 37 37 36 36 37 35 37 39 41 42 44 43 42
28 28 27 25 27 23 25 29 31 31 29 29 31 31 33 33 33 32 33 34 36 37 37 35 36 35 32 30 29 29 27 28 28 27 27 28 28 29 29 30 31 31 30 30 31 33 31 30 31 31 30 31 33 33 34 33 32 32 31 32 34 34 34 35 34 34 33 33 33 34 35 36 37 36 37 36 35 35 38 37 38 40 40 43 45 44
31 31 31 29 28 29 29 29 30 28 28 28 29 29 29 31 33 34 33 34 35 38 39 39 39 39 38 38 37 36 32 29 28 28 29 29 29 30 31 29 30 31 31 31 31 32 32 31 31 30 30 29 31 32 34 33 32 31 31 32 33 34 34 35 34 33 33 33 33 33 33 33 34 34 35 36 36 37 36 34 37 38 42 43 43 44
29 30 29 28 28 28 25 31 27 27 28 28 28 29 29 29 29 30 31 33 35 34 35 37 38 38 37 37 31 29 29 29 28 29 30 30 31 31 31 32 31 31 30 30 31 32 31 30 29 30 30 30 30 31 32 31 31 32 32 32 32 32 33 32 32 32 32 32 32 32 32 32 33 33 34 35 35 36 36 36 35 34 35 37 40 42
25 29 28 29 28 28 27 28 28 28 28 29 29 29 29 29 30 30 29 29 29 30 30 29 29 30 30 29 30 29 30 30 28 28 28 30 30 27 26 26 26 26 27 29 30 30 29 30 29 30 30 31 30 31 31 31 31 31 31 32 32 32 32 32 32 31 31 31 31 32 32 32 31 32 33 35 36 36 36 36 37 35 34 35 37 38
23 30 24 27 26 27 28 28 27 27 27 28 28 28 29 29 29 30 30 29 28 27 26 26 29 29 29 28 30 29 27 26 26 25 25 25 25 25 26 27 26 26 27 27 29 30 30 30 31 31 31 31 31 31 31 31 32 32 31 32 32 32 32 32 32 32 31 31 31 31 32 32 31 31 32 33 33 37 37 37 36 37 37 41 42 43
27 25 26 26 24 22 25 24 25 24 23 25 27 28 29 29 26 24 23 23 22 21 22 22 24 26 26 27 27 26 26 26 26 26 25 25 24 25 25 26 26 26 28 29 30 30 30 32 31 31 31 31 31 32 32 31 32 32 32 33 33 33 32 33 32 31 31 32 31 31 31 31 31 32 33 34 34 34 33 33 35 36 37 38 38 36
25 26 26 24 24 23 25 26 28 26 25 26 26 26 26 24 23 22 21 22 23 23 22 22 23 24 25 26 26 26 26 26 25 25 24 24 25 25 25 25 27 28 29 29 29 29 30 30 32 31 31 30 32 32 32 31 31 32 33 33 33 33 32 32 32 30 30 31 31 31 31 31 31 31 31 31 32 33 32 32 31 33 35 36 36 36